Weather Roundup
Issued by NWS Chicago, IL

Home | Current Version | Previous Version | Graphics & Text | Print | Product List | Glossary On
Versions: 1 2 3 4 5 6 7 8 9 10 11 12 13 14 15 16 17 18 19 20 21 22 23 24 25 26 27 28 29 30 31 32 33 34 35 36 37 38 39 40 41 42 43 44 45 46 47 48 49 50
000
NZUS59 KLOT 270806
HRRLOT

CHICAGO AREA WEATHER ROUNDUP
NATIONAL WEATHER SERVICE CHICAGO/ROMEOVILLE IL
200 AM CST TUE JAN 27 2015

NOTE: "FAIR" INDICATES FEW OR NO CLOUDS BELOW 12,000 FEET WITH NO
SIGNIFICANT WEATHER AND/OR OBSTRUCTIONS TO VISIBILITY.

* THESE STATIONS ARE NOT UNDER NWS QUALITY CONTROL. THEY ALSO MAY NOT
  REPORT WEATHER SUCH AS PRECIPITATION OR FOG.

ILZ005-006-012>014-019>023-270900-
NORTHEAST ILLINOIS

CITY           SKY/WX    TMP DP  RH WIND       PRES   REMARKS
OHARE          CLOUDY    27  24  89 NE3       29.94R
MIDWAY         LGT SNOW  29  25  85 E5        29.94R FOG     WCI  24
AURORA         CLOUDY    28  24  85 NE3       29.94R FOG
LANSING*       MIX PCPN  25  23  93 E5        29.95R WCI  19
JOLIET*        CLOUDY    28  26  93 E3        29.94R FOG
WAUKEGAN       CLOUDY    26  23  88 NW3       29.94R
DUPAGE AIRPORT CLOUDY    27  24  89 NE3       29.93R
WHEELING       CLOUDY    27  24  89 CALM      29.96R FOG
KANKAKEE*      MIX PCPN  28  27  95 E3        29.94R
MORRIS*        LGT SNOW  29  29 100 CALM      29.93R
LEWIS AIRPORT* CLOUDY    27  27  98 E3        29.94R
NORTHERLY IS     N/A     27  25  92 E7          N/A  WCI  20
$$

WIZ051-052-058>065-066-070>072-270900-
SOUTHEAST WISCONSIN

CITY           SKY/WX    TMP DP  RH WIND       PRES   REMARKS
MILWAUKEE      CLOUDY    27  22  81 N3        29.96R
KENOSHA*       CLOUDY    26  24  92 CALM      29.95R
RACINE*        CLOUDY    26  23  88 N3        29.97R FOG
BURLINGTON     CLOUDY    22  21  98 CALM      29.95R FOG
WAUKESHA       CLOUDY    23  23 100 CALM      29.95R FOG
WEST BEND      CLOUDY    25  23  93 CALM      29.96R FOG
$$

INZ001>003-010>013-019-020-270900-
NORTHWEST INDIANA

CITY           SKY/WX    TMP DP  RH WIND       PRES   REMARKS
GARY*          CLOUDY    26  20  77 SE3       29.96R
MICHIGAN CITY* NOT AVBL
RENSSELAER*    NOT AVBL
VALPARAISO     CLOUDY    22  19  89 E6        29.95R WCI  14
$$

LMZ740>746-270900-
SOUTHERN LAKE MICHIGAN

STATION/POSITION TIME  SKY/WX   TEMP WIND        PRES    VSBY
                                AIR  DIR/SP/G
                 (UTC)          (F)  (DEG/KT/KT) (MB)    (MI)
HARRISON CRIB    0800            26  130/  9/ 11   N/A
BURNHAM HARBOR   0800            26  110/  6/  9   N/A
CALUMET HARBOR   0800            26  100/  5/  7   N/A
BURNS HARBOR     NOT AVBL
MICHIGAN CITY    0800            23   60/  3/  5   N/A
$$

ABBREVIATIONS USED IN REMARKS
   TC - TEMPERATURE IN CELSIUS
  WCI - WIND CHILL INDEX
   HX - HEAT INDEX
  VSB - VISIBILITY
$$



USA.gov is the U.S. government's official web portal to all federal, state and local government web resources and services.